BLOCK DM-SL R/B, 55507

Orbit data source: Space-Track

BLOCK DM-SL R/B, 55507 is space debris in GEO originally from a launch on Sun, 05 Feb 2023 UTC launched from the Tyuratam Missile And Space Complex (TTMTR). Debris objects in space refer to the collection of defunct objects orbiting the Earth. Examples of debris include non-operational satellites, rocket bodies, and fragments generated from explosions, collisions, or faulty payload assembly.

Not visible in the next 10 days
Identifier
55507, 2023-016B
Orbit
GEO
Country
Flag of CISCIS
Related business
Manufacturer
RKKE
Mission
Spacecraft
Bus & Motor
BLOK DM2, 11D58M
Mass
2,440 kg wet, 2,440 kg dry
Launch date (UTC)
2023-02-05 (3 years ago)
Launch vehicle
Unknown
Launch site
Tyuratam Missile And Space Complex (TTMTR)
Object type
Payload
Rocket body
Debris
Shape & HBR
Cyl, 3.5 m
Radar Cross Section
26.008 m², Large (>1 m²)

Expand to show TLE details & history
Last TLE update: 23 hours ago

TLE from 23 hours ago
0 BLOCK DM-SL R/B
1 55507U 23016B   25351.88553549 -.00000070  00000-0  00000-0 0  9995
2 55507   2.1899  82.3567 0093322 240.2065 118.1945  1.03219847 10805
Epoch: 2025-12-17T21:15Z
TLE epoch observation values (Epoch: 2025-12-17T21:15:10.266Z)
Latitude
-0°
Longitude
36.13971°
Altitude
35,165.362 km
Speed
3.091 km/s
True Right ascension
05h 26m 43s
True Declination
0° 00' 00"
Sunlit
Object was in daylight at epoch
Visualization orbit readout
Latitude
Unknown
Longitude
Unknown
Altitude
Unknown
Speed
Unknown
Apparent Right ascension
Unknown
Apparent Declination
Unknown
Sunlit
N/A
Visualization observer readout
Local Sidereal Time
18:46:59
Azimuth
Unknown
Elevation
Unknown
Doppler factor
Unknown
Orbital elements
Apogee altitude
35,366.939 km
Perigee altitude
34,594.996 km
Semi-major axis
41,359.104 km
Eccentricity
0.00933
Inclination
2.1899°
RAAN
82.3567°
Arg. of periapsis
240.2065°
True anomaly
119.1318°
Mean anomaly
118.1945°
Eccentric anomaly
118.66367°
Mean motion
0.25804 °/min
Orbital period
1,395.13 mins
BSTAR
0
Loading maneuver chart data...
Computing Atmospheric mass density...
Loading historical data...
Loading historical data...
Loading historical data...
Loading historical data...
Loading historical data...
Loading historical data...
Loading historical data...
Other satellites on launch #16 in the year 2023 (2023-02-05 UTC)

Documentation

Showing up to 5 results
|